THORAD AGENA D DEB, 5026

Orbit data source: Space-Track

THORAD AGENA D DEB, 5026 is space debris in SSO originally from a launch on Wed, 08 Apr 1970 UTC launched from the Air Force Western Test Range (AFWTR). Debris objects in space refer to the collection of defunct objects orbiting the Earth. Examples of debris include non-operational satellites, rocket bodies, and fragments generated from explosions, collisions, or faulty payload assembly.

Loading next visibility...
Identifier
5026, 1970-025JA
Orbit
SSO
Country
Flag of USUS
Related business
Manufacturer
Unknown
Mission
Spacecraft
Bus & Motor
Unknown
Mass
Unknown
Launch date (UTC)
1970-04-08 (56 years ago)
Launch vehicle
Unknown
Launch site
Air Force Western Test Range (AFWTR)
Object type
Payload
Rocket body
Debris
Shape & HBR
Unknown shape, 0.1 m
Radar Cross Section
Medium (>0.1 m² and <1 m²)

Expand to show TLE details & history
Last TLE update: 11 hours ago

TLE from 11 hours ago
0 THORAD AGENA D DEB
1 05026U 70025JA  26256.23552354  .00001019  00000-0  10647-2 0  9998
2 05026 100.1801 170.5523 0030528 217.7163 296.2626 13.77833919796718
Epoch: 2026-09-13T05:39Z
TLE epoch observation values (Epoch: 2026-09-13T05:39:09.233Z)
Latitude
25.92374°
Longitude
-81.48788°
Altitude
964.752 km
Speed
7.377 km/s
True Right ascension
23h 42m 08s
True Declination
25° 47' 33"
Sunlit
Object was in full shadow at epoch
Visualization orbit readout
Latitude
Unknown
Longitude
Unknown
Altitude
Unknown
Speed
Unknown
Apparent Right ascension
Unknown
Apparent Declination
Unknown
Sunlit
N/A
Visualization observer readout
Local Sidereal Time
09:28:48
Azimuth
Unknown
Elevation
Unknown
Doppler factor
Unknown
Orbital elements
Apogee altitude
991.298 km
Perigee altitude
946.441 km
Semi-major axis
7,347.006 km
Eccentricity
0.00305
Inclination
100.1801°
RAAN
170.5523°
Arg. of periapsis
217.7163°
True anomaly
295.94836°
Mean anomaly
296.2626°
Eccentric anomaly
296.10553°
Mean motion
3.44649 °/min
Orbital period
104.45 mins
BSTAR
0.0010647

Documentation

Showing up to 5 results
|